CW0179 Weather Reports


Display with metric or nautical units.
time (UTC)temp
F
wind
direction
speed
MPH
gust
MPH
rain 1hr
in
rain 24hr
in
rain mn
in
humidity
%
barometer
mb
20260502210236 59 134 0.0 0.0 0.00 0.08 0.08 56 1008.8
20260502205237 59 134 0.0 0.0 0.00 0.08 0.08 55 1008.8
20260502203157 59 211 0.0 0.0 0.00 0.08 0.08 55 1008.9
20260502202208 58 184 0.0 0.0 0.00 0.08 0.08 57 1009.1
20260502201231 58 149 0.0 0.0 0.00 0.08 0.08 58 1009.2
20260502200235 59 134 0.0 0.0 0.00 0.08 0.08 58 1009.4
20260502195226 60 200 0.0 1.0 0.00 0.08 0.08 58 1009.4
20260502193054 59 165 0.0 3.0 0.00 0.08 0.08 61 1009.7
20260502192105 58 103 0.0 2.0 0.00 0.08 0.08 64 1009.9
20260502191101 58 177 0.0 4.0 0.00 0.08 0.08 65 1010.1
20260502190044 57 246 0.0 4.0 0.00 0.08 0.08 69 1010.1
20260502185030 56 204 0.0 3.0 0.00 0.08 0.08 70 1010.3
20260502184043 56 162 0.0 2.0 0.00 0.08 0.08 71 1010.4
20260502183015 56 197 0.0 0.0 0.00 0.08 0.08 73 1010.4
20260502182030 55 160 0.0 7.0 0.00 0.08 0.08 72 1010.4
20260502181002 55 263 1.0 6.0 0.00 0.08 0.08 73 1010.4
20260502163746 57 155 0.0 0.0 0.00 0.08 0.08 75 1010.5
20260502162757 56 77 0.0 2.0 0.00 0.08 0.08 79 1010.6
20260502161724 55 117 0.0 0.0 0.00 0.08 0.08 79 1010.8
20260502151544 57 359 1.0 3.0 0.00 0.08 0.08 77 1010.8
20260502150553 57 23 0.0 2.0 0.00 0.08 0.08 79 1011.0
20260502122924 51 172 0.0 0.0 0.00 0.08 0.08 94 1011.2
20260502121944 51 172 0.0 0.0 0.00 0.08 0.08 94 1011.2
20260502120958 51 172 0.0 0.0 0.00 0.08 0.08 94 1011.2
20260502115027 51 172 0.0 0.0 0.00 0.08 0.08 96 1011.5
20260502114046 50 172 0.0 0.0 0.00 0.08 0.08 97 1011.5
20260502110821 48 178 0.0 0.0 0.05 0.08 0.08 96 1011.0
20260502110059 48 205 0.0 0.0 0.05 0.08 0.08 96 1010.7
20260502105050 48 270 0.0 1.0 0.08 0.06 0.06 96 1010.7
20260502102937 48 133 0.0 0.0 0.19 0.02 0.02 96 1011.2
20260502071419 46 165 0.0 0.0 0.00 0.00 0.00 95 1010.7
20260502070410 46 165 0.0 0.0 0.00 0.00 0.00 94 1010.6
20260502065349 46 165 0.0 0.0 0.00 0.00 0.00 94 1010.8
20260502064331 46 165 0.0 0.0 0.00 0.00 0.00 94 1010.7
20260502063329 47 165 0.0 0.0 0.00 0.00 0.00 93 1010.7
20260502062316 47 165 0.0 0.0 0.00 0.00 0.00 93 1010.9
20260502061308 47 165 0.0 0.0 0.00 0.00 0.00 93 1010.9
20260502055112 47 165 0.0 0.0 0.00 0.00 0.00 92 1011.0
20260502054130 47 165 0.0 0.0 0.00 0.00 0.00 93 1011.0
20260502053145 47 165 0.0 0.0 0.00 0.00 0.00 93 1010.9
20260502052132 47 165 0.0 0.0 0.00 0.00 0.00 92 1011.1
20260502051132 47 165 0.0 0.0 0.00 0.00 0.00 92 1011.2
20260502050138 47 165 0.0 0.0 0.00 0.00 0.00 92 1011.2
20260502045109 47 165 0.0 0.0 0.00 0.00 0.00 92 1011.3
20260502044130 47 165 0.0 0.0 0.00 0.00 0.00 92 1011.5
20260502042044 46 165 0.0 0.0 0.00 0.00 0.00 92 1011.4
20260502041056 46 165 0.0 0.0 0.00 0.00 0.00 92 1011.3
20260502035008 46 165 0.0 0.0 0.00 0.00 0.00 92 1011.3
20260502034020 46 165 0.0 0.0 0.00 0.00 0.00 91 1011.2
20260502033021 46 165 0.0 0.0 0.00 0.00 0.00 91 1011.4
20260502031950 46 165 0.0 0.0 0.00 0.00 0.00 91 1011.5
20260502030947 46 165 0.0 0.0 0.00 0.00 0.00 90 1011.6
20260502025952 46 165 0.0 0.0 0.00 0.00 0.00 89 1011.5
20260502024932 46 165 0.0 0.0 0.00 0.00 0.00 87 1011.6
20260502022824 49 165 0.0 0.0 0.00 0.00 0.00 84 1011.5
20260502021816 49 165 0.0 0.0 0.00 0.00 0.00 83 1011.5
20260502020757 50 165 0.0 0.0 0.00 0.00 0.00 82 1011.6
20260502014637 51 165 0.0 0.0 0.00 0.00 0.00 80 1011.6
20260502013603 51 165 0.0 0.0 0.00 0.00 0.00 79 1011.4
20260502011500 53 165 0.0 0.0 0.00 0.00 0.00 74 1011.4
20260502010523 54 165 0.0 0.0 0.00 0.00 0.00 74 1011.4
20260502005542 54 165 0.0 0.0 0.00 0.00 0.00 72 1011.2
20260502004547 54 165 0.0 0.0 0.00 0.00 0.00 72 1011.1
20260502003539 54 165 0.0 0.0 0.00 0.00 0.00 71 1011.1
20260502002530 54 165 0.0 0.0 0.00 0.00 0.00 71 1010.9
20260502001514 54 119 0.0 0.0 0.00 0.00 0.00 71 1010.7
20260502000457 54 119 0.0 0.0 0.00 0.00 0.00 71 1010.7
20260501235515 54 117 0.0 0.0 0.00 0.00 0.00 70 1010.6
20260501234529 55 181 0.0 0.0 0.00 0.00 0.00 68 1010.3
20260501233523 55 89 0.0 3.0 0.00 0.00 0.00 67 1010.4
20260501231401 56 79 0.0 1.0 0.00 0.00 0.00 64 1010.0
20260501225224 59 8 0.0 3.0 0.00 0.00 0.00 58 1009.7
20260501224224 60 91 0.0 0.0 0.00 0.00 0.00 57 1009.7
20260501223154 61 30 1.0 6.0 0.00 0.00 0.00 54 1009.7
20260501222126 62 65 1.0 6.0 0.00 0.00 0.00 51 1009.6
20260501221148 63 56 1.0 6.0 0.00 0.00 0.00 49 1009.6
20260501215003 65 84 1.0 5.0 0.00 0.00 0.00 42 1009.2
20260501214016 65 109 1.0 5.0 0.00 0.00 0.00 40 1009.1
20260501212944 65 77 1.0 4.0 0.00 0.00 0.00 40 1009.1
20260501211949 65 162 0.0 5.0 0.00 0.00 0.00 41 1009.1
20260501211003 65 79 1.0 5.0 0.00 0.00 0.00 39 1009.1